Date String (YYYY-MM-DD hh:mm:ss) UTC,Instrument flags,Ambient pressure (hPa),Sample flow (lpm),Bypass flow (lpm),Sample temperature (°C),Ambient temperature (°C),ASC tube jacket temperature (°C),LED temperature (°C),Box temperature (°C),Sample RH (%),Span deviation,Mass concentration (μg/m³),Mass concentration (μg/m³),Mass concentration (μg/m³)
DateTimeUTC,F1_M11,P_M11,Q1_M11,Q2_M11,T1_M11,T2_M11,T3_M11,T4_M11,T5_M11,U1_M11,ZSPAN_M11,X0_M11,X2_M11,X1_M11
2022-12-25 02:00:00,,0830.1,5.00,0.00,22.0,20.7,00.0,30.9,23.7,13.8,0000.0,0010.50,0006.77,0006.57
2022-12-25 02:01:00,,0830.2,5.02,0.00,22.0,20.7,00.0,30.9,23.7,13.7,0000.0,0010.32,0006.60,0006.41
2022-12-25 02:02:00,,0830.2,5.01,0.00,22.0,20.7,00.0,30.9,23.7,13.8,0000.0,0010.24,0006.47,0006.27
2022-12-25 02:03:00,,0830.2,4.98,0.00,22.0,20.7,00.0,30.9,23.7,13.8,0000.0,0010.15,0006.40,0006.16
2022-12-25 02:04:00,,0830.1,4.96,0.00,22.0,20.7,00.0,30.9,23.7,13.8,0000.0,0010.05,0006.36,0006.12
2022-12-25 02:05:00,,0830.1,5.02,0.00,22.0,20.7,00.0,30.9,23.7,13.8,0000.0,0009.86,0006.25,0006.03
2022-12-25 02:06:00,,0830.2,5.00,0.00,21.9,20.7,00.0,30.9,23.7,13.9,0000.0,0009.87,0006.23,0006.02
2022-12-25 02:07:00,,0830.1,5.00,0.00,21.9,20.7,00.0,30.9,23.7,13.8,0000.0,0009.90,0006.24,0006.02
2022-12-25 02:08:00,,0830.1,4.97,0.00,22.0,20.7,00.0,30.9,23.8,13.8,0000.0,0009.57,0006.21,0005.97
2022-12-25 02:09:00,,0830.1,4.98,0.00,22.0,20.7,00.0,30.9,23.7,13.8,0000.0,0008.56,0006.15,0005.90
2022-12-25 02:10:00,,0830.1,5.01,0.00,22.0,20.7,00.0,30.9,23.7,13.8,0000.0,0008.50,0006.06,0005.81
2022-12-25 02:11:00,,0830.1,5.02,0.00,22.0,20.7,00.0,30.9,23.8,13.8,0000.0,0008.47,0006.02,0005.76
2022-12-25 02:12:00,,0830.3,4.99,0.00,22.0,20.7,00.0,30.9,23.8,13.8,0000.0,0008.55,0006.04,0005.75
2022-12-25 02:13:00,,0830.1,4.97,0.00,22.0,20.7,00.0,30.9,23.8,13.8,0000.0,0008.59,0006.07,0005.78
2022-12-25 02:14:00,,0830.2,4.99,0.00,22.0,20.8,00.0,30.9,23.8,13.8,0000.0,0008.48,0006.04,0005.77
2022-12-25 02:15:00,,0830.2,5.03,0.00,22.0,20.7,00.0,30.9,23.8,13.8,0000.0,0008.43,0006.03,0005.77
2022-12-25 02:16:00,,0830.2,5.02,0.00,22.0,20.7,00.0,30.9,23.8,13.9,0000.0,0008.59,0006.12,0005.84
2022-12-25 02:17:00,,0830.3,5.00,0.00,22.0,20.7,00.0,30.9,23.8,13.9,0000.0,0008.63,0006.19,0005.91
2022-12-25 02:18:00,,0830.3,4.96,0.00,22.0,20.7,00.0,30.9,23.8,13.9,0000.0,0008.71,0006.33,0006.03
2022-12-25 02:19:00,,0830.2,4.98,0.00,22.0,20.7,00.0,30.9,23.8,14.0,0000.0,0008.88,0006.52,0006.22
2022-12-25 02:20:00,,0830.2,5.02,0.00,22.0,20.7,00.0,30.9,23.8,14.1,0000.0,0009.13,0006.76,0006.46
2022-12-25 02:21:00,,0830.2,5.01,0.00,22.0,20.7,00.0,30.9,23.8,14.1,0000.0,0009.48,0007.04,0006.72
2022-12-25 02:22:00,,0830.2,5.01,0.00,22.0,20.7,00.0,30.9,23.8,14.1,0000.0,0009.72,0007.24,0006.93
2022-12-25 02:23:00,,0830.2,4.98,0.00,22.0,20.7,00.0,30.9,23.8,14.0,0000.0,0009.83,0007.35,0007.06
2022-12-25 02:24:00,,0830.3,4.98,0.00,22.0,20.7,00.0,30.9,23.8,14.0,0000.0,0009.83,0007.43,0007.16
2022-12-25 02:25:00,,0830.2,5.03,0.00,22.0,20.7,00.0,30.9,23.7,14.2,0000.0,0009.98,0007.61,0007.36
2022-12-25 02:26:00,,0830.2,5.02,0.00,22.0,20.7,00.0,30.8,23.7,14.2,0000.0,0010.13,0007.76,0007.51
2022-12-25 02:27:00,,0830.2,4.99,0.00,22.0,20.7,00.0,30.8,23.7,14.2,0000.0,0010.34,0007.91,0007.67
2022-12-25 02:28:00,,0830.3,4.98,0.00,21.9,20.7,00.0,30.8,23.7,14.2,0000.0,0010.56,0008.05,0007.81
2022-12-25 02:29:00,,0830.3,4.98,0.00,21.9,20.6,00.0,30.8,23.7,14.3,0000.0,0010.73,0008.18,0007.93
2022-12-25 02:30:00,,0830.3,5.04,0.00,21.9,20.6,00.0,30.8,23.7,14.3,0000.0,0010.74,0008.23,0008.00
2022-12-25 02:31:00,,0830.4,5.02,0.00,21.9,20.6,00.0,30.8,23.6,14.3,0000.0,0010.70,0008.23,0008.01
2022-12-25 02:32:00,,0830.3,4.98,0.00,21.9,20.6,00.0,30.8,23.6,14.3,0000.0,0010.68,0008.23,0008.02
2022-12-25 02:33:00,,0830.3,4.98,0.00,21.9,20.6,00.0,30.8,23.6,14.3,0000.0,0010.76,0008.25,0008.04
2022-12-25 02:34:00,,0830.3,4.99,0.00,21.9,20.6,00.0,30.8,23.6,14.4,0000.0,0010.83,0008.36,0008.15
2022-12-25 02:35:00,,0830.3,5.03,0.00,21.9,20.6,00.0,30.8,23.6,14.4,0000.0,0011.03,0008.53,0008.31
2022-12-25 02:36:00,,0830.3,5.02,0.00,21.9,20.6,00.0,30.8,23.7,14.3,0000.0,0011.00,0008.50,0008.28
2022-12-25 02:37:00,,0830.3,4.99,0.00,21.9,20.6,00.0,30.8,23.6,14.3,0000.0,0010.89,0008.38,0008.17
2022-12-25 02:38:00,,0830.4,4.98,0.00,21.9,20.6,00.0,30.8,23.6,14.3,0000.0,0010.65,0008.27,0008.07
2022-12-25 02:39:00,,0830.3,5.00,0.00,21.9,20.6,00.0,30.8,23.6,14.2,0000.0,0010.47,0008.17,0007.95
2022-12-25 02:40:00,,0830.3,5.03,0.00,21.9,20.6,00.0,30.8,23.6,14.2,0000.0,0010.37,0008.00,0007.79
2022-12-25 02:41:00,,0830.3,5.02,0.00,21.9,20.6,00.0,30.8,23.6,14.2,0000.0,0010.53,0007.83,0007.60
2022-12-25 02:42:00,,0830.3,4.97,0.00,21.8,20.5,00.0,30.8,23.5,14.3,0000.0,0010.55,0007.71,0007.45
2022-12-25 02:43:00,,0830.3,4.98,0.00,21.8,20.5,00.0,30.8,23.6,14.3,0000.0,0010.73,0007.63,0007.34
2022-12-25 02:44:00,,0830.2,5.02,0.00,21.9,20.6,00.0,30.8,23.6,14.3,0000.0,0011.65,0007.56,0007.18
2022-12-25 02:45:00,,0830.3,5.02,0.00,21.9,20.6,00.0,30.8,23.6,14.2,0000.0,0012.57,0007.41,0006.96
2022-12-25 02:46:00,,0830.2,5.00,0.00,21.9,20.6,00.0,30.8,23.6,14.2,0000.0,0012.52,0007.26,0006.74
2022-12-25 02:47:00,,0830.2,4.97,0.00,21.8,20.6,00.0,30.8,23.6,14.3,0000.0,0012.79,0007.21,0006.65
2022-12-25 02:48:00,,0830.2,4.98,0.00,21.8,20.6,00.0,30.7,23.7,14.2,0000.0,0013.24,0007.19,0006.60
2022-12-25 02:49:00,,0830.3,5.01,0.00,21.8,20.6,00.0,30.8,23.7,14.2,0000.0,0013.34,0007.12,0006.50
2022-12-25 02:50:00,,0830.2,5.02,0.00,21.8,20.6,00.0,30.7,23.7,14.1,0000.0,0013.17,0006.95,0006.36
2022-12-25 02:51:00,,0830.3,5.01,0.00,21.8,20.6,00.0,30.7,23.7,14.1,0000.0,0012.92,0006.79,0006.19
2022-12-25 02:52:00,,0830.3,4.98,0.00,21.8,20.6,00.0,30.7,23.7,14.1,0000.0,0012.50,0006.62,0006.02
2022-12-25 02:53:00,,0830.3,4.99,0.00,21.8,20.6,00.0,30.7,23.6,14.1,0000.0,0012.37,0006.41,0005.82
2022-12-25 02:54:00,,0830.4,5.03,0.00,21.8,20.6,00.0,30.7,23.6,14.1,0000.0,0011.98,0006.20,0005.63
2022-12-25 02:55:00,,0830.3,5.02,0.00,21.8,20.5,00.0,30.7,23.6,14.1,0000.0,0010.88,0006.02,0005.50
2022-12-25 02:56:00,,0830.4,4.99,0.00,21.8,20.6,00.0,30.7,23.6,14.1,0000.0,0009.60,0005.86,0005.40
2022-12-25 02:57:00,,0830.3,4.97,0.00,21.8,20.6,00.0,30.7,23.6,14.1,0000.0,0009.33,0005.69,0005.30
2022-12-25 02:58:00,,0830.3,5.00,0.00,21.8,20.6,00.0,30.7,23.6,14.1,0000.0,0009.09,0005.52,0005.17
2022-12-25 02:59:00,,0830.3,5.02,0.00,21.8,20.6,00.0,30.7,23.6,14.1,0000.0,0008.77,0005.35,0005.02
